Flag for Switzerland Weather past 2 weeks in Lugano, Switzerland

61 °F

Partly cloudy.

Feels Like: 61 °F
Forecast: 46 / 67 °F
Wind: 1 mph from North

Location: Lugano Airport

Current Time: Oct 10, 2015 at 8:27:16 PM

Latest Report: Oct 10, 2015 at 7:50 PM

Visibility: N/A

Pressure: 29.74 "Hg

Humidity: 83%

Dew point: 55 °F

Location of LuganoLocation

Historic Weather in Lugano — Graph


Lugano temperature yesterday

Maximum temperature yesterday: 64 °F (at 2:50 PM)
Minimum temperature yesterday: 52 °F (at 10:50 PM)
Average temperature yesterday: 58 °F

Past Weeks' High & Low Weather Summary

High73 °F (Sep 26, 2:50 PM)100% (Sep 26, 1:50 AM)30.39 "Hg (Sep 26, 1:50 AM)
Low48 °F (Sep 26, 6:20 AM)47% (Sep 26, 1:50 PM)29.74 "Hg (Oct 10, 5:20 PM)
Average59 °F81%30.12 "Hg
* Reported Sep 25 7:20 PM — Oct 10 7:20 PM, Lugano, Weather by CustomWeather, © 2015

Note: Actual official high and low records may vary slightly from our data, if they occured in-between our weather recording intervals... More about our weather records


Lugano weather history for previous 24 hours

Time TempWeatherWind HumidityBarometerVisibility
7:20 PM
Sat, Oct 10
63 °FBroken clouds.1 mph77%29.74 "HgN/A
6:50 PM63 °FPartly sunny.5 mph77%29.74 "HgN/A
6:20 PM64 °FScattered clouds.7 mph73%29.74 "HgN/A
5:50 PM66 °FScattered clouds.9 mph64%29.74 "HgN/A
5:20 PM66 °FPassing clouds.9 mph64%29.74 "HgN/A
4:50 PM68 °FPassing clouds.9 mph64%29.77 "HgN/A
4:20 PM68 °FPassing clouds.10 mph60%29.77 "HgN/A
3:50 PM68 °FPassing clouds.9 mph60%29.77 "HgN/A
3:20 PM68 °FPassing clouds.7 mph60%29.77 "HgN/A
2:50 PM68 °FMild.6 mph60%29.80 "HgN/A
2:20 PM68 °FPassing clouds.6 mph56%29.80 "HgN/A
1:50 PM68 °FPassing clouds.5 mph56%29.83 "HgN/A
1:20 PM66 °FPassing clouds.5 mph64%29.83 "HgN/A
12:50 PM64 °FPassing clouds.5 mph64%29.86 "HgN/A
12:20 PM63 °FPassing clouds.5 mph68%29.86 "HgN/A
11:50 AM63 °FPassing clouds.6 mph68%29.86 "HgN/A
11:20 AM61 °FPassing clouds.3 mph72%29.89 "HgN/A
10:50 AM59 °FPassing clouds.5 mph77%29.89 "HgN/A
10:20 AM57 °FPassing clouds.3 mph82%29.92 "HgN/A
9:50 AM57 °FSunny.2 mph82%29.92 "Hg10 mi
9:20 AM54 °FSunny.1 mph94%29.92 "Hg10 mi
8:50 AM52 °FPartly sunny.3 mph100%29.95 "HgN/A
8:20 AM52 °FPassing clouds.1 mph94%29.95 "HgN/A
7:50 AM52 °FPassing clouds.2 mph94%29.95 "HgN/A
7:20 AM52 °FPassing clouds.2 mph94%29.95 "HgN/A
6:50 AM52 °FPassing clouds.1 mph94%29.95 "HgN/A
6:20 AM52 °FPassing clouds.5 mph94%29.98 "HgN/A
5:50 AM50 °FPassing clouds.3 mph100%29.98 "HgN/A
5:20 AM52 °FPassing clouds.1 mph100%29.98 "HgN/A
4:50 AM52 °FPartly cloudy.2 mph100%29.98 "HgN/A
4:20 AM52 °FOvercast.1 mph100%30.01 "HgN/A
3:50 AM52 °FLow clouds.1 mph100%30.01 "HgN/A
3:20 AM52 °FPartly cloudy.2 mph100%30.01 "HgN/A
2:50 AM52 °FPassing clouds.1 mph100%30.01 "HgN/A
2:20 AM52 °FPartly cloudy.1 mph100%30.04 "HgN/A
1:50 AM52 °FPassing clouds.2 mph94%30.04 "HgN/A
1:20 AM52 °FPartly cloudy.2 mph94%30.04 "HgN/A
12:50 AM52 °FPassing clouds.3 mph94%30.04 "HgN/A
12:20 AM52 °FClear.3 mph100%30.04 "Hg10 mi
11:20 PM
Fri, Oct 9
52 °FClear.1 mph100%30.04 "Hg10 mi
10:50 PM52 °FClear.1 mph100%30.04 "Hg10 mi
10:20 PM54 °FClear.1 mph94%30.04 "Hg10 mi
9:50 PM54 °FClear.1 mph100%30.04 "Hg10 mi
9:20 PM54 °FClear.1 mph100%30.04 "Hg10 mi
8:50 PM55 °FClear.1 mph94%30.04 "Hg10 mi
8:20 PM55 °FClear.2 mph94%30.04 "Hg10 mi
Weather by CustomWeather, © 2015

See weather overviewHow to use our weather pages